TimeAWST,TemperatureF,Dew PointF,Humidity,Sea Level PressureIn,VisibilityMPH,Wind Direction,Wind SpeedMPH,Gust SpeedMPH,PrecipitationIn,Events,Conditions,WindDirDegrees,DateUTC
12:00 AM,56,53,87,30.01,,ESE,10.4,,,,,110,2012-11-17 16:00:00
12:00 AM,55.4,53.6,94,30.01,-9999.0,ESE,10.4,-,N/A,,Unknown,110,2012-11-17 16:00:00
1:00 AM,53.6,53.6,100,30.01,-9999.0,ESE,9.2,-,N/A,,Unknown,110,2012-11-17 17:00:00
2:00 AM,52,52,98,29.99,,ESE,8.1,,,,,110,2012-11-17 18:00:00
2:00 AM,51.8,51.8,100,30.01,-9999.0,ESE,8.1,-,N/A,,Unknown,110,2012-11-17 18:00:00
3:00 AM,52,51,95,30.00,,East,8.1,,,,,80,2012-11-17 19:00:00
3:00 AM,51.8,51.8,100,30.01,-9999.0,East,8.1,-,N/A,,Unknown,80,2012-11-17 19:00:00
4:00 AM,50.0,50.0,100,30.01,-9999.0,East,8.1,-,N/A,,Unknown,90,2012-11-17 20:00:00
5:00 AM,51,51,99,30.02,,East,8.1,,,,,90,2012-11-17 21:00:00
5:00 AM,51.8,51.8,100,30.04,-9999.0,East,8.1,-,N/A,,Unknown,90,2012-11-17 21:00:00
5:45 AM,57.2,57.2,100,30.04,-9999.0,ENE,17.3,-,N/A,,Unknown,70,2012-11-17 21:45:00
6:00 AM,58,57,97,30.03,,East,20.7,,,,,80,2012-11-17 22:00:00
6:00 AM,59.0,57.2,94,30.04,-9999.0,ENE,20.7,-,N/A,,Unknown,70,2012-11-17 22:00:00
7:00 AM,64.4,48.2,56,30.04,-9999.0,ENE,17.3,-,N/A,,Unknown,60,2012-11-17 23:00:00
8:00 AM,70,45,29,30.01,,ENE,16.1,,,,,60,2012-11-18 00:00:00
8:00 AM,69.8,44.6,40,30.01,-9999.0,ENE,16.1,-,N/A,,Unknown,60,2012-11-18 00:00:00
9:00 AM,77,42,18,29.99,,ENE,13.8,,,,,60,2012-11-18 01:00:00
9:00 AM,77.0,41.0,28,29.98,-9999.0,ENE,13.8,-,N/A,,Unknown,60,2012-11-18 01:00:00
10:00 AM,82.4,41.0,23,29.98,-9999.0,ENE,15.0,-,N/A,,Unknown,60,2012-11-18 02:00:00
11:00 AM,86,31,7,29.93,,NE,13.8,,,,,50,2012-11-18 03:00:00
11:00 AM,86.0,30.2,13,29.92,-9999.0,NE,13.8,-,N/A,,Unknown,50,2012-11-18 03:00:00
11:51 AM,89.6,28.4,11,29.89,-9999.0,NE,19.6,33.4,N/A,,Unknown,50,2012-11-18 03:51:00
12:00 PM,87,24,4,29.90,,North,11.5,,,,,10,2012-11-18 04:00:00
12:00 PM,87.8,24.8,10,29.89,-9999.0,North,11.5,33.4,N/A,,Unknown,10,2012-11-18 04:00:00
1:00 PM,89.6,21.2,8,29.86,-9999.0,ENE,15.0,-,N/A,,Unknown,60,2012-11-18 05:00:00
2:00 PM,92,19,4,29.83,,NE,10.4,,,,,40,2012-11-18 06:00:00
2:00 PM,91.4,19.4,7,29.83,-9999.0,NE,10.4,-,N/A,,Unknown,40,2012-11-18 06:00:00
3:00 PM,93,16,4,29.82,,ENE,13.8,,,,,60,2012-11-18 07:00:00
3:00 PM,93.2,15.8,6,29.83,-9999.0,ENE,13.8,-,N/A,,Unknown,60,2012-11-18 07:00:00
4:00 PM,93.2,15.8,6,29.80,-9999.0,NNE,11.5,-,N/A,,Unknown,30,2012-11-18 08:00:00
5:00 PM,92,15,4,29.79,,NE,11.5,,,,,40,2012-11-18 09:00:00
5:00 PM,91.4,15.8,6,29.80,-9999.0,NE,11.5,-,N/A,,Unknown,40,2012-11-18 09:00:00
6:00 PM,87,19,4,29.81,,ENE,8.1,,,,,70,2012-11-18 10:00:00
6:00 PM,87.8,19.4,8,29.80,-9999.0,ENE,8.1,-,N/A,,Unknown,70,2012-11-18 10:00:00
7:00 PM,80.6,33.8,18,29.83,-9999.0,ESE,15.0,-,N/A,,Unknown,120,2012-11-18 11:00:00
7:11 PM,78.8,44.6,30,29.83,-9999.0,ESE,20.7,-,N/A,,Unknown,110,2012-11-18 11:11:00
8:00 PM,76,44,21,29.81,,East,21.9,,,,,100,2012-11-18 12:00:00
8:00 PM,75.2,44.6,34,29.83,-9999.0,East,21.9,-,N/A,,Unknown,100,2012-11-18 12:00:00
9:00 PM,73,42,21,29.82,,East,19.6,,,,,100,2012-11-18 13:00:00
9:00 PM,73.4,41.0,31,29.83,-9999.0,East,19.6,-,N/A,,Unknown,100,2012-11-18 13:00:00
10:00 PM,71.6,41.0,33,29.83,-9999.0,East,19.6,-,N/A,,Unknown,90,2012-11-18 14:00:00
11:00 PM,69,41,24,29.81,,East,17.3,,,,,90,2012-11-18 15:00:00
11:00 PM,68.0,41.0,37,29.80,-9999.0,East,17.3,-,N/A,,Unknown,90,2012-11-18 15:00:00